RH
96 95 94 88 77 60 43 25 22 20 19 17 15 12 10 8 7 9 9 10 10 8 8 6 10 14 15 17 15 15 14 12 8 11 16 20 16 16 16 17 21 20 21 26 26 21 20
96 95 86 68 54 40 27 20 19 21 21 20 18 14 9 8 9 9 8 10 11 9 9 6 12 13 15 22 15 17 14 13 12 12 15 19 17 15 17 18 22 21 24 26 23 21 18
96 90 70 54 46 33 24 17 19 21 21 20 18 17 14 13 11 10 8 10 9 8 10 7 12 14 16 16 16 18 15 14 14 11 16 15 20 16 16 16 16 25 22 21 21 18 20
84 59 39 45 40 31 29 24 20 18 19 20 18 18 18 14 13 12 9 9 12 8 12 14 16 15 16 14 16 18 15 14 13 13 11 12 18 18 15 15 15 18 24 34 20 23 21
47 34 30 32 29 30 28 28 30 32 21 21 19 16 17 13 14 10 9 9 16 9 10 13 15 16 17 15 16 18 18 17 15 14 16 17 18 24 23 30 42 35 33 29 29 21 23
27 27 24 25 27 28 28 27 24 31 30 22 22 17 16 14 15 10 9 9 12 14 14 15 14 21 19 20 18 20 18 18 20 21 21 26 37 31 32 43 48 28 32 34 34 30 27
30 27 26 24 25 24 19 15 13 15 30 24 25 20 18 15 16 12 17 23 31 25 17 22 19 19 20 18 20 20 20 20 21 24 28 25 36 28 24 24 24 27 33 40 44 27 34
26 20 16 15 13 11 11 10 10 10 14 29 26 25 20 16 15 15 19 34 38 26 28 19 17 19 18 21 30 26 20 25 29 30 33 39 30 23 23 24 25 28 35 56 43 28 35
20 14 11 10 10 11 11 11 10 9 9 20 25 27 22 19 18 18 21 32 32 38 34 26 20 21 21 22 30 32 26 30 30 35 36 34 25 23 24 26 30 36 37 36 41 43 43
21 13 11 12 15 16 16 12 10 10 9 12 27 29 23 24 22 26 21 24 31 41 60 41 28 24 23 23 30 24 22 28 34 31 36 29 23 24 28 26 27 47 33 34 40 63 66
28 17 15 21 28 33 26 18 16 16 10 9 19 30 28 22 25 22 20 18 28 52 62 34 28 19 22 28 27 28 24 30 36 29 37 40 31 32 31 28 26 37 34 38 34 78 81
29 19 26 36 42 38 38 37 35 26 13 9 14 28 28 29 27 26 20 29 52 66 43 36 29 32 30 30 30 30 34 36 30 36 38 36 27 36 35 33 29 32 54 38 49 82 82
31 28 38 48 50 52 54 54 50 43 22 10 20 28 33 29 33 30 29 50 61 51 32 34 33 32 35 34 34 34 44 61 66 61 64 58 36 35 36 51 35 62 82 83 72 84 76
37 41 49 57 60 63 67 68 65 57 26 13 25 29 39 37 30 32 48 41 34 34 38 30 30 34 33 36 36 40 46 61 52 67 91 84 66 50 43 64 59 67 85 81 60 81 73
45 54 61 64 68 72 76 73 68 61 25 13 29 38 42 38 31 39 56 68 58 42 30 35 39 39 41 38 36 52 54 70 65 78 61 79 62 44 42 37 64 72 86 53 74 90 92
58 65 67 71 75 79 80 76 71 64 24 18 33 44 45 37 36 58 62 61 45 30 29 30 40 39 43 52 42 49 56 76 67 63 63 68 79 47 48 46 42 74 77 76 91 66 78
68 71 74 78 82 82 82 80 75 66 36 29 47 63 43 40 48 61 76 60 38 26 33 37 40 43 59 42 41 45 57 52 48 40 54 84 78 60 56 73 78 69 85 76 86 87 85
76 78 83 84 85 86 84 81 76 71 52 29 58 53 43 40 56 82 60 42 34 31 28 32 37 57 50 38 48 47 45 49 50 45 66 78 84 95 65 78 85 87 85 75 82 72 92
84 85 87 90 92 87 80 79 75 76 71 46 76 75 40 42 78 66 43 38 35 34 33 34 35 34 34 37 57 54 43 44 42 44 71 78 84 94 79 80 77 71 78 89 86 86 88
87 92 96 97 100 100 91 79 71 69 72 45 84 64 66 70 77 70 58 45 43 35 34 30 33 31 34 37 40 49 46 44 40 38 50 59 86 79 84 75 83 86 92 89 72 87 85
98 100 99 99 98 98 95 84 69 66 65 55 85 72 67 82 64 54 57 73 48 44 37 32 39 38 50 57 48 45 40 48 45 40 48 68 78 74 69 66 76 69 72 90 73 64 77
94 95 96 96 99 97 94 76 69 63 64 56 94 92 96 76 51 51 67 66 49 48 49 47 42 45 48 61 59 62 44 47 50 52 61 64 83 82 92 71 81 86 74 85 77 72 80
85 88 91 90 94 99 92 85 68 70 77 72 58 59 96 92 64 78 82 56 48 50 54 45 48 46 51 48 36 34 33 37 41 55 71 76 82 89 88 72 79 78 68 84 88 92 82
96 85 85 84 87 87 88 86 82 77 83 94 68 64 100 97 90 78 66 57 63 61 70 48 38 49 44 33 36 39 42 45 41 49 58 79 80 77 94 83 97 61 88 73 74 78 81
99 100 99 98 94 89 88 87 86 83 87 99 92 70 100 99 90 83 78 80 70 61 65 54 47 44 45 55 95 96 72 54 51 53 53 61 70 84 94 99 76 59 69 67 67 66 73
99 95 88 79 78 74 68 63 65 73 79 94 100 87 77 100 90 74 84 79 93 87 82 62 60 58 45 74 91 97 96 89 78 60 60 50 62 83 92 99 94 67 48 58 74 78 64
76 70 60 50 45 38 36 34 34 51 69 76 100 95 92 100 91 66 84 85 77 87 98 87 76 64 50 93 97 96 95 78 86 82 88 81 83 86 86 92 82 59 44 58 74 73 73
70 70 70 67 63 63 64 66 52 40 58 84 99 99 94 100 94 82 70 90 88 91 96 96 95 94 79 99 97 94 98 89 89 76 80 83 91 97 87 95 90 47 46 59 65 59 67
62 63 61 59 56 59 63 61 67 67 52 92 90 97 94 100 97 89 84 78 72 73 92 93 98 85 81 94 98 97 99 98 95 94 73 97 86 88 71 69 51 47 48 47 55 65 62
Wind_Speed
10 10 11 12 12 12 13 13 13 12 11 10 9 8 7 7 7 8 8 10 10 9 10 9 11 9 3 7 3 20 25 18 15 14 18 5 8 4 4 3 3 5 2 5 4 3 2
10 11 12 13 14 13 12 13 14 13 13 12 10 8 8 8 7 8 9 10 10 10 9 7 9 9 4 7 9 19 22 16 21 16 17 12 3 3 6 4 5 2 5 5 3 2 2
10 11 13 14 15 15 15 13 12 13 14 15 12 9 8 8 9 11 8 9 11 7 7 6 5 4 9 3 8 24 20 10 13 14 4 9 7 5 3 3 2 5 2 1 1 1 2
10 12 13 14 16 16 16 16 14 14 14 15 14 11 9 8 12 11 6 8 9 4 8 7 5 4 3 6 9 23 21 4 6 7 5 6 7 6 5 3 3 2 2 5 1 5 1
11 12 13 14 15 16 17 19 19 18 15 16 17 12 9 9 15 7 0 6 12 3 5 7 4 3 3 7 9 20 16 9 9 5 4 5 3 5 4 3 4 7 2 4 6 3 4
10 11 12 13 14 16 17 19 21 21 19 16 19 14 12 10 16 6 2 4 3 10 5 4 6 3 5 6 12 17 16 11 4 8 3 7 6 5 6 7 1 4 5 4 5 4 2
10 11 12 12 14 16 17 19 21 23 20 16 20 17 14 9 16 6 3 1 3 5 16 5 1 0 5 17 4 16 21 11 3 7 5 5 9 4 3 3 1 1 2 4 6 3 7
9 9 11 12 14 16 17 19 20 23 23 19 18 18 14 6 11 5 5 7 2 4 6 3 1 2 3 7 5 11 19 6 7 5 7 7 4 2 4 3 2 2 3 6 6 2 5
8 9 11 13 14 16 17 18 20 22 23 20 15 19 14 5 6 13 17 8 5 2 4 3 2 2 4 6 3 9 9 4 6 6 6 6 1 2 2 4 6 3 1 3 5 11 2
8 10 11 13 15 16 17 19 20 22 22 19 15 20 13 2 3 5 5 4 3 2 5 9 6 4 3 1 3 3 5 2 8 3 3 6 1 2 2 3 2 3 1 2 4 5 3
9 10 12 14 15 18 19 19 21 23 22 18 16 16 11 14 3 4 1 2 2 1 4 4 6 4 6 5 5 5 5 4 4 3 1 2 3 4 3 2 1 4 2 3 2 2 3
9 10 12 14 16 18 19 21 23 24 23 18 15 10 13 4 7 4 1 1 1 6 3 4 4 6 4 4 5 6 6 9 0 2 5 3 1 3 2 3 2 5 3 2 2 3 3
9 11 12 13 16 17 20 23 25 26 24 18 12 7 16 8 2 3 1 1 5 6 4 5 4 5 3 5 6 6 5 8 4 6 7 3 1 1 2 3 0 7 5 4 5 4 4
9 10 11 13 15 18 21 23 25 29 24 16 8 5 10 15 6 1 1 5 7 2 1 2 2 4 3 6 2 7 3 4 6 4 2 3 6 3 4 3 3 3 4 4 4 3 4
8 9 11 13 15 18 21 24 27 30 27 12 5 4 5 16 6 1 4 6 4 1 1 5 3 3 3 3 2 6 4 3 2 1 3 5 5 2 4 2 3 1 1 1 2 2 3
8 8 10 12 14 17 20 24 28 32 27 12 2 2 5 16 5 2 5 4 3 1 2 1 2 2 3 5 5 5 1 3 2 2 2 2 5 1 2 2 1 2 1 3 3 4 5
6 7 9 12 14 17 20 24 29 33 29 11 3 3 10 14 4 6 4 3 2 2 3 4 0 2 2 3 2 3 2 1 1 2 3 3 3 3 2 4 5 2 2 3 3 3 4
5 7 9 11 13 16 18 22 27 33 34 10 3 3 12 12 4 3 3 2 0 1 1 2 2 3 2 1 2 2 2 2 4 5 3 3 5 3 7 1 3 2 5 4 4 5 2
4 6 8 11 13 14 15 18 24 29 32 9 2 2 8 4 3 2 2 2 1 2 2 2 2 2 2 2 2 3 1 3 5 5 6 4 2 4 7 3 3 2 4 3 4 3 7
4 6 9 10 13 16 16 15 20 24 27 8 3 3 4 6 1 5 2 1 1 0 1 1 1 1 1 3 5 3 3 3 4 2 4 3 1 6 8 8 3 3 5 4 5 3 4
5 7 9 11 13 15 16 15 17 19 21 7 4 1 3 3 4 3 2 1 1 2 1 1 1 5 6 2 3 5 4 2 3 4 3 4 5 5 12 14 6 13 21 7 10 18 8
6 7 9 11 12 12 14 15 13 14 15 6 3 3 3 1 1 2 1 3 3 1 4 4 5 3 8 7 8 6 4 5 5 3 6 2 3 2 5 14 7 7 16 12 18 16 13
7 8 9 10 9 9 11 11 11 12 10 4 2 3 4 3 0 3 3 4 5 6 5 5 8 3 5 10 0 2 4 2 3 9 9 6 3 1 5 3 7 10 8 8 5 3 6
7 7 8 9 9 10 11 10 10 10 6 2 1 2 3 4 3 5 3 4 7 7 6 4 4 5 1 4 3 3 3 6 6 6 6 6 4 2 5 4 1 7 2 5 9 7 14
6 6 7 6 6 8 8 9 10 9 5 1 3 2 3 3 3 3 8 7 5 3 5 4 3 1 2 3 1 5 2 3 2 3 5 4 4 3 3 3 8 8 2 4 6 8 6
1 1 2 4 5 6 6 8 8 7 7 4 6 7 3 2 6 6 5 5 6 4 2 3 2 2 2 2 1 3 5 5 4 2 6 4 4 3 2 3 6 6 3 4 4 6 6
4 4 4 5 6 7 7 7 7 6 6 4 3 7 2 2 4 3 4 4 4 1 1 1 1 0 2 3 4 5 4 3 4 6 5 2 0 8 8 6 9 10 4 4 3 4 3
4 5 6 7 7 8 9 9 7 7 6 4 3 5 4 2 4 6 6 5 1 2 4 3 2 1 1 3 4 4 4 5 1 5 8 9 8 5 4 6 9 8 4 5 2 2 3
6 6 7 7 8 9 9 9 9 9 7 2 4 4 7 5 5 6 13 13 9 6 4 4 2 5 5 2 2 2 3 2 5 5 4 4 8 5 10 8 5 7 7 2 2 3 2
Wind_Direction
59 54 49 46 43 42 40 42 42 38 30 21 13 2 357 350 346 349 355 358 5 1 3 10 14 12 48 45 351 346 344 0 12 26 36 12 43 20 81 82 58 72 105 64 102 128 238
58 53 50 47 44 42 42 42 41 33 25 13 7 3 0 355 350 348 345 349 360 5 12 32 39 37 51 67 344 351 349 13 18 32 35 37 41 5 87 57 65 90 109 130 174 292 292
58 54 51 45 45 46 44 41 39 32 23 18 15 4 355 350 337 327 331 339 343 357 21 44 54 57 63 118 14 4 359 18 15 23 33 35 5 85 124 87 133 135 75 117 83 43 325
58 55 53 48 47 46 44 40 33 25 20 17 14 5 356 350 347 330 326 351 352 79 40 49 44 64 90 7 2 358 4 27 40 24 31 28 36 92 62 115 75 16 52 16 69 350 317
57 56 53 47 46 42 40 37 30 25 20 19 14 11 4 355 350 355 31 27 29 347 37 30 51 56 9 347 2 351 354 356 347 11 354 1 29 86 36 29 28 14 321 358 322 24 311
59 55 50 46 44 39 36 32 29 24 20 17 14 11 3 1 359 1 299 297 15 38 22 43 33 46 29 319 319 336 356 352 337 326 31 32 47 61 23 32 217 315 335 331 273 339 320
57 50 46 43 41 38 32 29 25 23 18 14 13 12 9 12 12 13 32 60 32 354 38 85 313 89 340 326 321 347 351 335 337 49 26 21 61 46 343 14 26 280 267 270 260 24 341
53 46 45 40 38 34 29 25 22 19 17 12 13 10 10 14 30 26 48 70 77 132 81 27 60 67 324 338 343 343 6 51 36 44 346 31 71 270 298 282 309 272 300 307 284 350 342
48 41 42 38 34 30 25 20 19 16 14 11 13 10 12 16 37 43 74 79 94 77 83 17 38 21 318 10 61 322 15 337 48 49 30 93 192 266 333 36 16 26 66 322 258 322 231
47 46 42 37 32 26 22 19 17 12 10 10 10 12 14 18 73 36 54 41 37 29 76 337 355 2 332 127 48 309 14 34 31 67 68 89 226 341 317 80 18 306 150 312 307 28 289
53 50 45 37 31 27 23 18 14 9 7 8 9 14 16 42 71 60 66 9 11 37 59 317 322 324 316 60 304 7 26 32 71 14 55 307 14 15 55 307 27 255 349 237 209 129 50
54 53 48 37 34 27 22 18 14 8 4 5 8 22 21 29 49 52 21 359 71 43 274 325 337 355 16 30 10 317 33 37 78 88 49 87 7 54 291 296 228 308 344 102 54 99 24
56 56 47 38 33 27 22 17 12 6 1 359 9 34 34 38 23 7 40 63 38 92 333 328 335 6 343 331 349 27 54 13 57 29 11 343 39 311 334 320 212 38 35 341 357 7 225
61 57 48 37 31 25 20 16 12 5 357 353 6 31 28 23 8 26 103 57 72 197 14 355 280 314 25 6 344 6 77 40 39 45 56 54 328 10 355 113 196 9 126 145 249 256 286
66 56 46 36 27 21 17 15 11 6 355 352 11 29 17 360 4 29 76 54 191 196 312 349 327 17 341 21 352 45 63 168 235 8 107 21 286 103 44 50 113 299 54 169 53 64 41
71 50 39 30 22 18 15 12 9 8 1 0 33 40 7 354 357 43 71 152 181 14 343 294 54 35 324 320 21 33 332 227 209 190 169 187 316 114 139 55 26 116 186 37 11 334 302
65 43 32 22 16 13 13 11 9 7 6 8 40 52 355 355 13 48 104 175 122 53 21 33 8 309 245 320 327 305 248 192 152 152 80 127 111 285 122 190 184 16 7 25 120 141 204
55 34 20 13 10 9 10 13 11 8 7 11 14 49 352 352 45 41 72 27 318 124 13 65 103 146 203 318 268 270 274 148 150 150 143 223 150 261 254 180 179 177 202 148 130 261 208
39 18 7 3 3 1 6 13 12 10 7 356 57 270 5 352 90 34 238 78 104 160 193 175 191 191 180 244 346 227 258 187 169 160 172 189 240 322 308 12 15 203 227 146 108 69 206
11 358 354 353 356 356 357 10 13 8 4 13 53 25 337 39 61 119 136 167 182 283 220 134 153 89 188 255 215 260 237 201 187 156 155 141 225 201 252 252 122 283 209 211 146 153 209
344 345 345 345 347 344 344 355 6 5 2 13 36 260 185 332 351 48 91 223 187 253 269 208 210 225 176 241 229 226 204 170 170 199 159 137 230 209 272 279 261 265 264 185 193 229 216
324 327 329 330 333 336 334 350 351 356 358 52 99 89 1 236 284 348 104 228 206 236 153 239 216 188 188 210 205 223 173 186 218 146 162 176 265 9 262 272 260 253 263 190 216 238 256
300 311 318 320 328 345 346 345 344 350 4 52 109 114 110 270 105 79 234 197 208 154 238 224 207 206 225 238 261 288 282 297 213 165 184 168 214 341 258 335 330 291 243 186 191 216 160
293 303 310 314 327 333 336 346 351 354 12 4 37 107 92 257 176 201 222 226 240 210 219 218 177 169 331 344 280 249 250 239 199 205 171 160 161 190 276 335 262 241 199 181 184 225 209
287 293 298 304 316 317 324 345 339 352 359 240 237 196 142 247 206 292 251 239 266 229 225 232 194 72 97 71 353 307 234 269 175 43 171 162 147 259 247 225 295 278 225 151 169 263 224
145 318 331 339 332 323 334 331 331 342 345 300 252 215 164 131 223 229 221 208 241 220 309 212 61 350 61 100 161 234 226 222 207 194 2 81 86 154 344 241 265 234 189 141 112 288 184
34 18 6 353 340 325 318 318 325 325 320 297 267 218 175 174 262 183 197 204 143 121 205 99 165 139 320 153 202 216 236 216 207 196 167 115 117 216 217 259 283 263 167 138 91 271 196
22 16 10 10 9 0 358 352 336 319 312 292 267 233 218 200 269 215 210 175 99 199 202 143 112 197 108 197 217 225 206 227 358 177 180 172 168 206 186 216 273 152 110 188 213 267 225
19 13 7 4 10 0 353 350 349 342 330 318 261 277 242 217 249 268 263 253 248 215 149 184 260 169 184 175 228 259 228 192 196 256 134 204 208 204 194 209 242 190 228 359 77 242 280